Regional Weather Roundup
Issued by NWS Cleveland, OH

Home | Current Version | Previous Version | Graphics & Text | Print | Product List | Glossary On
Versions: 1 2 3 4 5 6 7 8 9 10 11 12 13 14 15 16 17 18 19 20 21 22 23 24 25 26 27 28 29 30 31 32 33 34 35 36 37 38 39 40 41 42 43 44 45 46 47 48 49 50
000
ASUS41 KCLE 110600
RWRCLE
OHIO REGIONAL WEATHER ROUNDUP
NATIONAL WEATHER SERVICE WILMINGTON, OH
200 AM EDT FRI JUL 11 2014

NOTE: "FAIR" INDICATES FEW OR NO CLOUDS BELOW 12,000 FEET WITH NO
SIGNIFICANT WEATHER AND/OR OBSTRUCTIONS TO VISIBILITY.

OHZ001>008-015>018-024>027-034-035-043-044-110700-
   NORTHWEST OHIO

CITY           SKY/WX    TMP DP  RH WIND       PRES   REMARKS
DEFIANCE       CLEAR     59  55  87 N3        30.20R
FINDLAY        CLEAR     63  57  81 CALM      30.19R
TOLEDO EXPRESS CLEAR     59  57  93 CALM      30.20R
TOLEDO METCALF CLEAR     63  57  81 CALM      30.20S
LIMA           CLEAR     63  57  81 CALM      30.20R
$$

OHZ009>014-019>023-028>033-038-089-110700-
   NORTHEAST OHIO

CITY           SKY/WX    TMP DP  RH WIND       PRES   REMARKS
CLE-HOPKINS    CLEAR     61  55  81 CALM      30.20S
CLE-LAKEFRONT  CLEAR     66  54  65 CALM      30.17R
CUY CO. ARPT   NOT AVBL
LORAIN-ELYRIA  CLEAR     62  56  80 CALM      30.20R
ASHTABULA      CLOUDY    56  53  90 CALM      30.20R
AKRON-CANTON   MOCLDY    64  56  75 NE6       30.18S
WOOSTER        NOT AVBL
MANSFIELD      CLEAR     60  56  86 CALM      30.20S
YOUNGSTOWN     MOCLDY    62  56  80 CALM      30.18S
$$

OHZ042-051>053-060>062-070>072-077>081-110700-
  SOUTHWEST OHIO

CITY           SKY/WX    TMP DP  RH WIND       PRES   REMARKS
CINC-COVINGTON PTCLDY    68  54  60 NE3       30.18S
CINC-LUNKEN    CLEAR     59  58  96 CALM      30.19R
HAMILTON       CLEAR     60  58  92 CALM      30.19R
DAYTON         NOT AVBL
WRIGHT-PAT AFB CLEAR     60  57  89 CALM      30.19R
DAYTON GENERAL CLEAR     63  56  78 NE3       30.19R
WILMINGTON     CLEAR     60  56  86 N5        30.18S
$$

OHZ036-037-039>041-045>050-054>059-063>069-073>076-082>088-110700-
  CENTRAL AND SOUTHEAST OHIO

CITY           SKY/WX    TMP DP  RH WIND       PRES   REMARKS
COLUMBUS       PTCLDY    68  58  70 N5        30.17R
OSU AIRPORT    CLEAR     64  57  78 N3        30.18R
BOLTON FIELD   NOT AVBL
RICKENBACK AFB NOT AVBL
NEWARK         PTCLDY    62  59  90 CALM      30.17S
MARION         CLEAR     62  57  83 CALM      30.19S
LANCASTER      MOCLDY    62  58  86 NW3       30.17S
ZANESVILLE     PTCLDY    63  59  87 CALM      30.16S
NEW PHILLY     CLEAR     64  60  87 CALM      30.17S
$$


USA.gov is the U.S. government's official web portal to all federal, state and local government web resources and services.